Location: Unspecified
(0.0000°N, 0.0000°E)
Time: 02:37:44
(UTC+02:00)

Iridium 39 - Visible Passes

Search period start: 26 May 2016 00:00
Search period end: 05 June 2016 00:00
Orbit: 776 x 779 km, 86.4° (Epoch: 25 May)

Date Brightness Start Highest point End Pass type
(mag) Time Alt. Az. Time Alt. Az. Time Alt. Az.
26 May 6.1 22:00:47 75° NW 22:00:47 75° NW 22:05:40 10° N visible
27 May 6.2 21:26:14 43° ESE 21:27:00 46° E 21:31:57 10° NNE visible
28 May 7.2 20:51:35 17° ESE 20:53:32 21° E 20:57:22 10° NE visible
28 May 8.2 22:31:58 18° WSW 22:33:57 22° W 22:37:53 10° NW visible
29 May 6.9 21:57:10 20° SSW 22:00:30 48° W 22:05:30 10° NNW visible
30 May 5.9 21:22:09 12° S 21:27:03 76° E 21:32:14 10° N visible
31 May 6.7 20:48:55 10° SSE 20:53:35 33° E 20:58:13 10° NNE visible
31 May 8.8 22:31:36 10° WSW 22:33:59 13° W 22:36:23 10° WNW visible
01 Jun 7.6 20:17:12 10° SE 20:20:07 15° E 20:23:02 10° NE visible
01 Jun 7.8 21:56:03 10° SSW 22:00:32 29° W 22:05:01 10° NNW visible
02 Jun 6.3 21:21:55 10° S 21:27:06 67° W 21:32:14 10° N visible
03 Jun 6.1 20:48:32 10° SSE 20:53:38 55° E 20:58:41 10° NNE visible
04 Jun 7.1 20:15:59 10° SE 20:20:10 24° E 20:24:19 10° NE visible
04 Jun 8.6 21:57:03 10° SW 22:00:35 18° W 22:04:06 10° NW visible
